Weather History for Holland, MI

Change the Weather History Date:

Wednesday, August 28, 2013

  Actual Average Record
Temperature  
Mean Temperature 76 °F 69 °F  
Max Temperature 86 °F 80 °F 93 °F (1953)
Min Temperature 66 °F 59 °F 40 °F (1982)
Degree Days  
Heating Degree Days 0 1  
Month to date heating degree days 11 1  
Since 1 June heating degree days 53 55  
Since 1 July heating degree days 19 7  
Cooling Degree Days 11 5  
Month to date cooling degree days 151 179  
Year to date cooling degree days 676 602  
Since 1 June cooling degree days 586 560  
Growing Degree Days 26 (Base 50)    
Moisture  
Dew Point 71 °F    
Average Humidity 81    
Maximum Humidity 97    
Minimum Humidity 65    
Precipitation  
Precipitation 0.00 in 0.12 in 1.45 in (2004)
Month to date precipitation 1.57 3.22  
Year to date precipitation 27.76 22.86  
Sea Level Pressure  
Sea Level Pressure 29.93 in    
Wind  
Wind Speed 4 mph (North)    
Max Wind Speed 13 mph    
Max Gust Speed 18 mph    
Visibility 8 miles    
Events      
T = Trace of Precipitation, MM = Missing Value Source: NWS Daily Summary

Daily Weather History Graph

Daily Weather History Graph

Search for Another Location

Airport:

Trip Planner

Search our weather history database for the weather conditions in past years. The results will help you decide how hot, cold, wet, or windy it might be!

Date:

Astronomy

Aug. 28, 2013 Rise Set
Actual Time 7:05 AM EDT 8:25 PM EDT
Civil Twilight 6:35 AM EDT 8:54 PM EDT
Nautical Twilight 6:00 AM EDT 9:29 PM EDT
Astronomical Twilight 5:22 AM EDT 10:06 PM EDT
Moon 12:09 AM EDT (8/28) 3:06 PM EDT (8/28)
Length of Visible Light 14h 18m
Length of Day
13h 20m
Waning Gibbous, 47% of the Moon is Illuminated
Aug 28
Waning Gibbous
Sep 5
New
Sep 12
First Quarter
Sep 19
Full
Sep 26
Last Quarter

Hourly Weather History & Observations

Time (EDT) Temp. Heat Index Dew Point Humidity Pressure Visibility Wind Dir Wind Speed Gust Speed Precip Events Conditions
12:53 AM 79.0 °F - 72.0 °F 79% 29.81 in 10.0 mi WSW 13.8 mph 20.7 mph 0.01 in   Overcast
1:53 AM 75.9 °F - 72.0 °F 87% 29.81 in 10.0 mi WSW 8.1 mph - N/A   Scattered Clouds
2:53 AM 75.0 °F - 72.0 °F 90% 29.82 in 10.0 mi West 4.6 mph - N/A   Partly Cloudy
3:53 AM 73.0 °F - 71.1 °F 93% 29.82 in 9.0 mi West 4.6 mph - N/A   Clear
4:53 AM 72.0 °F - 70.0 °F 93% 29.83 in 6.0 mi Calm Calm - N/A   Partly Cloudy
5:53 AM 71.1 °F - 70.0 °F 96% 29.84 in 5.0 mi West 3.5 mph - N/A   Partly Cloudy
6:31 AM 73.4 °F - 71.6 °F 94% 29.86 in 5.0 mi NW 5.8 mph - N/A   Scattered Clouds
6:48 AM 73.4 °F - 71.6 °F 94% 29.87 in 5.0 mi NNW 3.5 mph - N/A   Mostly Cloudy
6:53 AM 73.0 °F - 71.1 °F 93% 29.86 in 5.0 mi NNW 3.5 mph - N/A   Mostly Cloudy
7:29 AM 73.4 °F - 71.6 °F 94% 29.89 in 2.5 mi NNE 8.1 mph - N/A   Overcast
7:40 AM 73.4 °F - 71.6 °F 94% 29.89 in 4.0 mi NNE 9.2 mph - N/A   Overcast
7:53 AM 73.9 °F - 72.0 °F 93% 29.88 in 4.0 mi North 6.9 mph - N/A   Overcast
8:35 AM 75.2 °F - 71.6 °F 89% 29.91 in 7.0 mi NNE 4.6 mph - N/A   Overcast
8:53 AM 75.0 °F - 72.0 °F 90% 29.90 in 7.0 mi NNE 3.5 mph - N/A   Overcast
9:53 AM 75.9 °F - 72.0 °F 87% 29.91 in 10.0 mi NNE 6.9 mph - N/A   Overcast
10:45 AM 75.2 °F - 71.6 °F 89% 29.93 in 10.0 mi Variable 5.8 mph - N/A   Overcast
10:53 AM 77.0 °F - 71.1 °F 82% 29.92 in 10.0 mi ENE 6.9 mph - N/A   Overcast
11:53 AM 78.1 °F - 71.1 °F 79% 29.94 in 10.0 mi NE 4.6 mph - N/A   Overcast
12:35 PM 78.8 °F - 71.6 °F 78% 29.97 in 10.0 mi Variable 4.6 mph - N/A   Overcast
12:53 PM 79.0 °F - 71.1 °F 77% 29.95 in 10.0 mi NE 4.6 mph - N/A   Overcast
1:53 PM 81.0 °F 84.9 °F 71.1 °F 72% 29.96 in 10.0 mi NNE 6.9 mph - N/A   Overcast
2:12 PM 80.6 °F 84.6 °F 71.6 °F 74% 29.98 in 10.0 mi NNE 5.8 mph - N/A   Overcast
2:46 PM 82.4 °F 86.3 °F 69.8 °F 66% 29.98 in 10.0 mi Variable 5.8 mph - N/A   Mostly Cloudy
2:53 PM 82.0 °F 85.9 °F 70.0 °F 67% 29.97 in 10.0 mi East 8.1 mph - N/A   Overcast
3:06 PM 82.4 °F 86.3 °F 69.8 °F 66% 29.98 in 10.0 mi Variable 3.5 mph - N/A   Overcast
3:21 PM 82.4 °F 86.3 °F 69.8 °F 66% 29.98 in 10.0 mi Variable 4.6 mph - N/A   Overcast
3:29 PM 82.4 °F 86.3 °F 69.8 °F 66% 29.97 in 10.0 mi ENE 5.8 mph - N/A   Overcast
3:44 PM 84.2 °F 89.6 °F 71.6 °F 66% 29.97 in 10.0 mi East 4.6 mph - N/A   Overcast
3:53 PM 82.9 °F 87.5 °F 71.1 °F 67% 29.96 in 10.0 mi East 4.6 mph - N/A   Mostly Cloudy
4:33 PM 82.4 °F 86.3 °F 69.8 °F 66% 29.97 in 10.0 mi ESE 3.5 mph - N/A   Mostly Cloudy
4:53 PM 82.0 °F 85.5 °F 69.1 °F 65% 29.97 in 10.0 mi ENE 4.6 mph - N/A   Mostly Cloudy
5:53 PM 82.0 °F 86.3 °F 71.1 °F 69% 29.97 in 10.0 mi West 5.8 mph - N/A   Mostly Cloudy
6:17 PM 78.8 °F - 71.6 °F 78% 29.99 in 10.0 mi SW 4.6 mph - N/A   Overcast
6:39 PM 80.6 °F 84.6 °F 71.6 °F 74% 30.00 in 10.0 mi WSW 3.5 mph - N/A   Overcast
6:53 PM 80.1 °F 83.6 °F 71.1 °F 74% 29.98 in 10.0 mi West 4.6 mph - N/A   Mostly Cloudy
7:53 PM 77.0 °F - 70.0 °F 79% 29.99 in 10.0 mi WNW 3.5 mph - N/A   Clear
8:53 PM 73.0 °F - 69.1 °F 87% 30.01 in 10.0 mi NW 3.5 mph - N/A   Clear
9:53 PM 70.0 °F - 68.0 °F 93% 30.03 in 10.0 mi Calm Calm - N/A   Clear
10:53 PM 69.1 °F - 66.9 °F 93% 30.04 in 10.0 mi Calm Calm - N/A   Clear
11:53 PM 68.0 °F - 66.0 °F 93% 30.03 in 1.2 mi Calm Calm - N/A   Clear